GEESAT 6-08

导读

GEESAT 6-08是中国于2025年9月24日发射的卫星,属于吉利控股集团旗下GEESATCOM低轨卫星物联网星座。该次发射是吉利星座一期部署的第六次任务,完成一期建设后,在轨卫星总数达到64颗,星座可实现除两极外全球全覆盖,为各类场景提供可靠的实时物联网通信服务。

Basic Information
目录编号:
65720
目录名称:
GEESAT 6-08
国际标识:
2025-214J
轨道中心:
EARTH
卫星名称:
GEESAT 6-08
卫星全名:
GEESAT 6-08
卫星状态:
在轨 (已飞行262 天)
发射日期:
2025-09-24 UTC
国别 :
中国 (CN)
星等 :
--
Orbit Information
数据来源 国际轨道数据
星历时间: 2026-06-12T12:22:03+0800
22小时前
查看轨道信息
半长轴: 6996.927km
偏心率: 0.0009755
轨道倾角: 49.993°
近地点辐角 194.711°
升交点赤经 331.617°
平近点角 165.354°
近地点: 611.964km
远地点: 625.616km
周期: 97.078分钟
每日圈数: 14.833436
Detailed Information
使用方式:
暂无
2D Orbit Map
3D Orbit Map
Orbit Altitude Analysis Chart
Orbit Inclination Analysis Chart
Orbit Comprehensive Analysis Chart
View Comprehensive Chart